Atwater, CA

5:54 PM PST on February 25, 2018 (GMT -0800)
Castle

Weather History for KMER - June, 2014

Change the Weather History Date:

Monday, June 9, 2014

  Actual Average (KMCE) Record (KMCE)
Temperature  
Mean Temperature 86 °F -  
Max Temperature 107 °F 88 °F 107 °F (2014)
Min Temperature 64 °F 54 °F 46 °F (1999)
Cooling Degree Days 20    
Growing Degree Days 36 (Base 50)    
Moisture  
Dew Point 51 °F    
Average Humidity 40    
Maximum Humidity 73    
Minimum Humidity 8    
Precipitation  
Precipitation 0.00 in - - ()
Sea Level Pressure  
Sea Level Pressure 29.66 in    
Wind  
Wind Speed 6 mph (North)    
Max Wind Speed 13 mph    
Max Gust Speed -    
Visibility 10 miles    
Events      
Averages and records for this station are not official NWS values.
T = Trace of Precipitation, MM = Missing Value Source: NWS Daily Summary

Daily Weather History Graph

Daily Weather History Graph

Search for Another Location

Airport or City:

Trip Planner

Search our weather history database for the weather conditions in past years. The results will help you decide how hot, cold, wet, or windy it might be!

Date:

Astronomy

Jun. 09, 2014 Rise Set
Actual Time 5:41 AM PDT 8:22 PM PDT
Civil Twilight 5:10 AM PDT 8:53 PM PDT
Nautical Twilight 4:31 AM PDT 9:31 PM PDT
Astronomical Twilight 3:48 AM PDT 10:14 PM PDT
Moon 4:52 PM PDT (6/9) 3:07 AM PDT (6/9)
Length of Visible Light 15h 42m
Length of Day
14h 40m
Waxing Gibbous, 86% of the Moon is Illuminated
Jun 9
Waxing Gibbous
Jun 12
Full
Jun 19
Last Quarter
Jun 27
New
Jul 5
First Quarter

Hourly Weather History & Observations

Time (PDT) Temp. Heat Index Dew Point Humidity Pressure Visibility Wind Dir Wind Speed Gust Speed Precip Events Conditions
12:15 AM 75.2 °F - 53.6 °F 47% 29.70 in 10.0 mi NE 6.9 mph - N/A   Clear
12:35 AM 75.2 °F - 53.6 °F 47% 29.70 in 10.0 mi ENE 6.9 mph - N/A   Clear
12:55 AM 73.4 °F - 53.6 °F 50% 29.70 in 10.0 mi ENE 6.9 mph - N/A   Clear
1:15 AM 73.4 °F - 53.6 °F 50% 29.69 in 10.0 mi ENE 9.2 mph - N/A   Clear
1:35 AM 73.4 °F - 51.8 °F 47% 29.69 in 10.0 mi NE 8.1 mph - N/A   Clear
1:55 AM 73.4 °F - 50.0 °F 44% 29.69 in 10.0 mi NE 6.9 mph - N/A   Clear
2:15 AM 73.4 °F - 50.0 °F 44% 29.69 in 10.0 mi North 5.8 mph - N/A   Clear
2:35 AM 73.4 °F - 48.2 °F 41% 29.69 in 10.0 mi North - - N/A   Clear
2:55 AM 73.4 °F - 50.0 °F 44% 29.69 in 10.0 mi North - - N/A   Clear
3:15 AM 73.4 °F - 51.8 °F 47% 29.69 in 10.0 mi Calm Calm - N/A   Clear
3:35 AM 71.6 °F - 50.0 °F 46% 29.69 in 10.0 mi Calm Calm - N/A   Clear
3:55 AM 71.6 °F - 51.8 °F 50% 29.69 in 10.0 mi NW 3.5 mph - N/A   Clear
4:15 AM 71.6 °F - 51.8 °F 50% 29.69 in 10.0 mi NNW 5.8 mph - N/A   Clear
4:35 AM 66.2 °F - 53.6 °F 64% 29.69 in 10.0 mi ENE 3.5 mph - N/A   Clear
4:55 AM 64.4 °F - 55.4 °F 73% 29.69 in 10.0 mi Calm Calm - N/A   Clear
5:15 AM 66.2 °F - 55.4 °F 68% 29.69 in 10.0 mi North 3.5 mph - N/A   Clear
5:35 AM 64.4 °F - 55.4 °F 73% 29.70 in 10.0 mi Calm Calm - N/A   Clear
5:55 AM 64.4 °F - 55.4 °F 73% 29.70 in 10.0 mi North - - N/A   Clear
6:50 AM 69.8 °F - 57.2 °F 64% 29.71 in 10.0 mi Calm Calm - N/A   Clear
7:45 AM 78.8 °F - 51.8 °F 39% 29.72 in 10.0 mi Calm Calm - N/A   Clear
8:45 AM 84.2 °F - 51.8 °F 33% 29.72 in 10.0 mi Variable 4.6 mph - N/A   Clear
9:50 AM 89.6 °F - 48.2 °F 24% 29.72 in 10.0 mi NNW 9.2 mph - N/A   Clear
10:45 AM 93.2 °F - 51.8 °F 24% 29.71 in 10.0 mi NNW 5.8 mph - N/A   Clear
1:50 PM 104.0 °F - 48.2 °F 15% 29.67 in 10.0 mi NNW 8.1 mph - N/A   Clear
2:45 PM 105.8 °F - 44.6 °F 13% 29.65 in 10.0 mi North 12.7 mph - N/A   Clear
3:45 PM 107.6 °F - 37.4 °F 9% 29.63 in 10.0 mi NNW 11.5 mph - N/A   Clear
4:45 PM 107.6 °F - 35.6 °F 8% 29.62 in 10.0 mi NNW 11.5 mph - N/A   Clear
5:45 PM 107.6 °F - 35.6 °F 8% 29.60 in 10.0 mi North 11.5 mph - N/A   Clear
6:45 PM 104.0 °F - 39.2 °F 11% 29.60 in 10.0 mi NNW 9.2 mph - N/A   Clear
7:45 PM 96.8 °F - 50.0 °F 20% 29.61 in 10.0 mi North 6.9 mph - N/A   Clear
8:15 PM 91.4 °F 89.1 °F 53.6 °F 28% 29.61 in 10.0 mi North - - N/A   Clear
8:35 PM 87.8 °F - 51.8 °F 29% 29.61 in 10.0 mi North 8.1 mph - N/A   Clear
8:45 PM 86.0 °F 84.2 °F 53.6 °F 33% 29.61 in 10.0 mi North 6.9 mph - N/A   Clear
8:55 PM 86.0 °F - 51.8 °F 31% 29.61 in 10.0 mi North - - N/A   Clear
9:15 PM 84.2 °F 82.8 °F 53.6 °F 35% 29.62 in 10.0 mi North - - N/A   Clear
9:35 PM 82.4 °F - 51.8 °F 35% 29.63 in 10.0 mi North 6.9 mph - N/A   Clear
9:55 PM 82.4 °F 81.4 °F 53.6 °F 37% 29.63 in 10.0 mi North 6.9 mph - N/A   Clear
10:15 PM 80.6 °F 80.3 °F 53.6 °F 39% 29.64 in 10.0 mi North - - N/A   Clear
10:35 PM 77.0 °F - 55.4 °F 47% 29.64 in 10.0 mi North - - N/A   Clear
10:55 PM 77.0 °F - 53.6 °F 44% 29.64 in 10.0 mi North - - N/A   Clear
11:15 PM 78.8 °F - 51.8 °F 39% 29.64 in 10.0 mi North 3.5 mph - N/A   Clear
11:35 PM 77.0 °F - 51.8 °F 41% 29.64 in 10.0 mi North - - N/A   Clear
11:55 PM 77.0 °F - 51.8 °F 41% 29.64 in 10.0 mi North 5.8 mph - N/A   Clear